EDT,Max TemperatureF,Mean TemperatureF,Min TemperatureF,Max Dew PointF,MeanDew PointF,Min DewpointF,Max Humidity, Mean Humidity, Min Humidity, Max Sea Level PressureIn, Mean Sea Level PressureIn, Min Sea Level PressureIn, Max VisibilityMiles, Mean VisibilityMiles, Min VisibilityMiles, Max Wind SpeedMPH, Mean Wind SpeedMPH, Max Gust SpeedMPH,PrecipitationIn, CloudCover, Events, WindDirDegrees
2012-10-1,64,56,48,51,47,45,87,71,54,29.93,29.89,29.85,10,10,10,13,8,,0.00,5,,255
2012-10-2,66,58,51,59,55,46,94,85,77,29.95,29.91,29.87,10,8,2,10,4,,0.13,7,Rain,87
2012-10-3,70,64,60,64,60,55,97,88,73,30.13,30.00,29.92,10,6,1,14,6,18,0.01,8,,144
2012-10-4,72,66,59,57,54,50,90,72,46,30.14,30.09,30.03,10,10,9,23,9,32,0.00,2,,208
2012-10-5,69,60,51,59,54,46,86,74,56,30.02,29.96,29.89,10,9,6,23,13,31,0.09,7,Rain,235
2012-10-6,55,50,46,47,41,32,93,77,50,30.06,29.92,29.84,10,8,4,23,12,29,0.57,7,Rain,269
2012-10-7,48,42,36,41,37,33,89,75,62,30.15,30.07,30.02,10,10,5,13,5,,0.05,7,Rain,259
2012-10-8,52,46,39,42,38,34,93,77,53,30.24,30.20,30.15,10,10,8,10,4,,0.00,6,Rain,169
2012-10-9,57,47,37,40,37,32,89,72,45,30.22,30.13,29.96,10,10,7,16,5,20,0.00,3,,173
2012-10-10,54,48,42,46,40,30,87,72,50,30.05,29.85,29.76,10,9,2,24,12,36,0.07,5,Rain,244
2012-10-11,55,45,35,41,32,27,76,58,43,30.20,30.10,30.00,10,10,10,28,15,41,0.00,5,,252
2012-10-12,46,40,30,43,33,22,87,71,39,30.48,30.26,30.04,10,10,9,18,13,26,0.03,5,Rain,318
2012-10-13,55,38,26,46,30,21,82,66,37,30.47,30.29,29.92,10,9,6,18,4,26,0.06,5,Rain,160
2012-10-14,73,64,55,59,56,50,90,75,57,29.92,29.79,29.54,10,9,2,23,15,29,0.46,7,Rain,211
2012-10-15,66,56,44,55,43,37,77,69,57,29.84,29.66,29.46,10,10,10,32,22,51,0.01,6,Rain,256
2012-10-16,52,44,39,38,36,33,87,71,54,29.96,29.91,29.85,10,10,10,15,8,21,0.00,5,,274
2012-10-17,66,52,37,47,41,34,89,68,43,29.91,29.84,29.76,10,10,9,13,5,,0.00,5,Rain,160
2012-10-18,69,60,48,48,44,38,93,64,45,29.86,29.73,29.65,10,10,7,26,9,39,0.43,5,Rain,167
2012-10-19,64,52,39,49,43,37,100,86,43,29.83,29.72,29.62,10,7,0,18,5,25,0.12,3,Fog-Rain-Thunderstorm,105
2012-10-20,53,49,46,48,44,40,94,82,68,29.82,29.68,29.61,10,10,4,18,10,30,0.16,6,Rain,234
2012-10-21,60,52,44,46,44,41,90,78,53,30.11,30.00,29.84,10,10,7,16,12,24,0.00,2,,253
2012-10-22,63,53,43,49,43,39,93,74,48,30.15,30.11,30.06,10,9,6,10,5,,0.01,2,,232
2012-10-23,54,52,51,53,51,45,100,93,76,30.09,30.04,30.00,10,3,2,14,7,,0.67,8,Rain,84
2012-10-24,60,55,50,56,53,48,97,93,86,30.12,30.09,30.06,9,3,1,10,5,,0.03,8,Rain,68
2012-10-25,78,63,48,56,52,48,100,83,39,30.08,30.04,29.94,10,4,0,18,3,23,0.00,3,Fog,153
2012-10-26,71,59,46,54,49,41,83,72,57,30.20,30.07,29.95,10,10,7,20,12,28,0.01,5,Rain,273
2012-10-27,46,44,42,45,43,39,93,90,86,30.18,30.08,30.00,10,5,2,16,10,22,0.92,8,Rain,7
2012-10-28,42,42,41,40,39,37,93,88,81,30.13,30.05,29.93,10,6,2,17,11,22,0.31,8,Rain,19
2012-10-29,45,42,41,41,39,37,93,89,81,29.94,29.69,29.25,10,5,2,31,16,45,1.43,8,Rain,1
2012-10-30,55,50,44,52,46,39,94,84,66,29.39,29.20,29.10,10,7,2,32,22,47,0.70,8,Rain,60
2012-10-31,46,44,41,43,39,37,93,83,71,29.47,29.43,29.38,10,10,9,15,5,,0.04,7,Rain,219